Hourly Weather Manchester

Today, 10 July, Friday

Time Temperature Precipitation Wind Pressure Humidity
00:00 +13°C° 0 mm 2 mps 756 mmHg 88%
01:00 +12°C° 0 mm 2 mps 756 mmHg 87%
02:00 +11°C° 0 mm 3 mps 756 mmHg 86%
03:00 +10°C° 0 mm 4 mps 756 mmHg 86%
04:00 +10°C° 0 mm 4 mps 756 mmHg 84%
05:00 +11°C° 0 mm 4 mps 756 mmHg 83%
06:00 +11°C° 0 mm 4 mps 756 mmHg 82%
07:00 +12°C° 0 mm 5 mps 756 mmHg 78%
08:00 +13°C° 0 mm 5 mps 757 mmHg 74%
09:00 +14°C° 0 mm 6 mps 757 mmHg 70%
10:00 +15°C° 0.1 mm 6 mps 757 mmHg 67%
11:00 +16°C° 0.1 mm 6 mps 758 mmHg 65%
12:00 +16°C° 0.1 mm 6 mps 758 mmHg 62%
13:00 +16°C° 0.1 mm 6 mps 758 mmHg 61%
14:00 +16°C° 0.1 mm 6 mps 758 mmHg 61%
15:00 +16°C° 0.1 mm 6 mps 758 mmHg 61%
16:00 +16°C° 0 mm 6 mps 759 mmHg 63%
17:00 +15°C° 0 mm 6 mps 759 mmHg 66%
18:00 +15°C° 0 mm 6 mps 759 mmHg 69%
19:00 +14°C° 0 mm 5 mps 760 mmHg 73%
20:00 +13°C° 0 mm 4 mps 760 mmHg 77%
21:00 +12°C° 0 mm 4 mps 761 mmHg 81%
22:00 +11°C° 0 mm 4 mps 761 mmHg 82%
23:00 +11°C° 0 mm 4 mps 761 mmHg 82%

Tomorrow, 11 July, Saturday

Time Temperature Precipitation Wind Pressure Humidity
00:00 +11°C° 0 mm 4 mps 762 mmHg 83%
01:00 +11°C° 0 mm 4 mps 762 mmHg 83%
02:00 +10°C° 0 mm 4 mps 762 mmHg 84%
03:00 +10°C° 0 mm 4 mps 762 mmHg 84%
04:00 +11°C° 0 mm 4 mps 762 mmHg 83%
05:00 +11°C° 0 mm 4 mps 762 mmHg 82%
06:00 +12°C° 0 mm 4 mps 763 mmHg 80%
07:00 +12°C° 0 mm 4 mps 763 mmHg 76%
08:00 +13°C° 0 mm 5 mps 763 mmHg 73%
09:00 +14°C° 0 mm 5 mps 764 mmHg 69%
10:00 +15°C° 0 mm 5 mps 764 mmHg 68%
11:00 +15°C° 0 mm 5 mps 764 mmHg 67%
12:00 +15°C° 0 mm 5 mps 764 mmHg 65%
13:00 +16°C° 0 mm 5 mps 764 mmHg 64%
14:00 +16°C° 0 mm 5 mps 764 mmHg 63%
15:00 +17°C° 0 mm 5 mps 765 mmHg 62%
16:00 +17°C° 0 mm 4 mps 765 mmHg 64%
17:00 +17°C° 0 mm 4 mps 765 mmHg 66%
18:00 +15°C° 0 mm 4 mps 765 mmHg 68%
19:00 +14°C° 0 mm 3 mps 765 mmHg 72%
20:00 +13°C° 0 mm 3 mps 765 mmHg 75%
21:00 +12°C° 0 mm 2 mps 766 mmHg 79%
22:00 +12°C° 0 mm 1 mps 766 mmHg 81%
23:00 +12°C° 0 mm 1 mps 766 mmHg 83%

Day after tomorrow, 12 July, Sunday

Time Temperature Precipitation Wind Pressure Humidity
00:00 +11°C° 0 mm 1 mps 766 mmHg 85%
01:00 +11°C° 0 mm 1 mps 766 mmHg 86%
02:00 +11°C° 0 mm 1 mps 766 mmHg 88%
03:00 +11°C° 0 mm 1 mps 766 mmHg 89%
04:00 +11°C° 0 mm 1 mps 766 mmHg 88%
05:00 +12°C° 0 mm 1 mps 766 mmHg 86%
06:00 +13°C° 0 mm 1 mps 766 mmHg 85%
07:00 +14°C° 0 mm 1 mps 766 mmHg 79%
08:00 +15°C° 0 mm 1 mps 766 mmHg 74%
09:00 +17°C° 0 mm 2 mps 766 mmHg 68%
10:00 +18°C° 0 mm 2 mps 766 mmHg 64%
11:00 +19°C° 0 mm 2 mps 766 mmHg 60%
12:00 +20°C° 0 mm 2 mps 766 mmHg 56%
13:00 +20°C° 0 mm 2 mps 766 mmHg 55%
14:00 +20°C° 0 mm 2 mps 765 mmHg 54%
15:00 +21°C° 0 mm 2 mps 765 mmHg 53%
16:00 +20°C° 0 mm 2 mps 765 mmHg 57%
17:00 +20°C° 0 mm 2 mps 765 mmHg 61%
18:00 +19°C° 0 mm 2 mps 765 mmHg 65%
19:00 +18°C° 0 mm 2 mps 765 mmHg 69%
20:00 +18°C° 0 mm 1 mps 765 mmHg 73%
21:00 +15°C° 0 mm 1 mps 765 mmHg 77%
22:00 +15°C° 0 mm 1 mps 765 mmHg 79%
23:00 +14°C° 0 mm 1 mps 765 mmHg 80%

13 July, Monday

Time Temperature Precipitation Wind Pressure Humidity
00:00 +13°C° 0 mm 0 mps 764 mmHg 82%
01:00 +13°C° 0 mm 1 mps 764 mmHg 83%
02:00 +13°C° 0 mm 1 mps 764 mmHg 83%
03:00 +13°C° 0 mm 1 mps 763 mmHg 84%
04:00 +13°C° 0 mm 1 mps 763 mmHg 81%
05:00 +13°C° 0 mm 1 mps 763 mmHg 79%
06:00 +14°C° 0 mm 1 mps 763 mmHg 76%
07:00 +15°C° 0 mm 2 mps 763 mmHg 71%
08:00 +16°C° 0 mm 2 mps 762 mmHg 66%
09:00 +17°C° 0 mm 2 mps 762 mmHg 60%
10:00 +17°C° 0 mm 2 mps 762 mmHg 63%
11:00 +17°C° 0 mm 2 mps 762 mmHg 66%
12:00 +17°C° 0 mm 2 mps 761 mmHg 69%
13:00 +18°C° 0 mm 3 mps 761 mmHg 69%
14:00 +19°C° 0 mm 3 mps 761 mmHg 68%
15:00 +20°C° 0 mm 4 mps 760 mmHg 68%
16:00 +19°C° 0 mm 3 mps 760 mmHg 71%
17:00 +19°C° 0 mm 3 mps 759 mmHg 73%
18:00 +18°C° 0 mm 3 mps 759 mmHg 76%
19:00 +17°C° 0.2 mm 3 mps 759 mmHg 80%
20:00 +17°C° 0.2 mm 3 mps 759 mmHg 84%
21:00 +16°C° 0.2 mm 3 mps 758 mmHg 88%
22:00 +16°C° 0.2 mm 3 mps 758 mmHg 89%
23:00 +16°C° 0.2 mm 3 mps 758 mmHg 89%

14 July, Tuesday

Time Temperature Precipitation Wind Pressure Humidity
00:00 +14°C° 0.2 mm 3 mps 757 mmHg 90%
01:00 +14°C° 0.5 mm 3 mps 757 mmHg 91%
02:00 +14°C° 0.5 mm 3 mps 756 mmHg 92%
03:00 +14°C° 0.5 mm 3 mps 756 mmHg 93%
04:00 +14°C° 0.3 mm 3 mps 755 mmHg 93%
05:00 +14°C° 0.3 mm 3 mps 755 mmHg 93%
06:00 +14°C° 0.3 mm 3 mps 755 mmHg 93%
07:00 +16°C° 0.1 mm 3 mps 755 mmHg 89%
08:00 +17°C° 0.1 mm 4 mps 755 mmHg 84%
09:00 +17°C° 0.1 mm 4 mps 755 mmHg 80%
10:00 +17°C° 0.2 mm 5 mps 754 mmHg 77%
11:00 +17°C° 0.2 mm 5 mps 754 mmHg 73%
12:00 +19°C° 0.2 mm 5 mps 754 mmHg 70%
13:00 +19°C° 0.1 mm 5 mps 754 mmHg 69%
14:00 +19°C° 0.1 mm 6 mps 753 mmHg 68%
15:00 +19°C° 0.1 mm 6 mps 753 mmHg 67%
16:00 +17°C° 0 mm 6 mps 753 mmHg 69%
17:00 +16°C° 0 mm 5 mps 753 mmHg 71%
18:00 +15°C° 0 mm 5 mps 753 mmHg 73%
19:00 +15°C° 0 mm 4 mps 753 mmHg 76%
20:00 +14°C° 0 mm 4 mps 752 mmHg 79%
21:00 +13°C° 0 mm 3 mps 752 mmHg 83%
22:00 +13°C° 0.1 mm 3 mps 752 mmHg 85%
23:00 +13°C° 0.1 mm 3 mps 752 mmHg 87%

15 July, Wednesday

Time Temperature Precipitation Wind Pressure Humidity
00:00 +14°C° 0.1 mm 2 mps 751 mmHg 89%
01:00 +14°C° 0.2 mm 2 mps 751 mmHg 90%
02:00 +13°C° 0.2 mm 3 mps 751 mmHg 92%
03:00 +13°C° 0.2 mm 3 mps 750 mmHg 94%
04:00 +14°C° 0.3 mm 3 mps 750 mmHg 94%
05:00 +14°C° 0.3 mm 3 mps 751 mmHg 94%
06:00 +14°C° 0.3 mm 4 mps 751 mmHg 94%
07:00 +14°C° 0.1 mm 4 mps 751 mmHg 92%
08:00 +14°C° 0.1 mm 4 mps 751 mmHg 91%
09:00 +15°C° 0.1 mm 5 mps 752 mmHg 89%
10:00 +15°C° 0.1 mm 5 mps 752 mmHg 86%
11:00 +16°C° 0.1 mm 5 mps 753 mmHg 83%
12:00 +17°C° 0.1 mm 5 mps 753 mmHg 79%
13:00 +17°C° 0.1 mm 5 mps 753 mmHg 78%
14:00 +19°C° 0.1 mm 5 mps 753 mmHg 77%
15:00 +19°C° 0.1 mm 6 mps 753 mmHg 75%
16:00 +19°C° 0 mm 5 mps 754 mmHg 75%
17:00 +19°C° 0 mm 5 mps 754 mmHg 75%
18:00 +17°C° 0 mm 5 mps 754 mmHg 75%
19:00 +17°C° 0 mm 4 mps 755 mmHg 79%
20:00 +16°C° 0 mm 3 mps 755 mmHg 83%
21:00 +14°C° 0 mm 3 mps 756 mmHg 88%
22:00 +14°C° 0 mm 3 mps 756 mmHg 88%
23:00 +14°C° 0 mm 3 mps 756 mmHg 88%
Show more